{"data":{"norad_id":43478,"intl_designator":"2018-047C","name":"IRIDIUM 161","alt_names":[],"object_type":"PAYLOAD","status":"ACTIVE","operator":null,"country":"US","launch_date":"2018-05-22","launch_site_code":"AFWTR","launch_vehicle":null,"mission":null,"orbit_class":"UNKNOWN","rcs_meters":null,"size_class":null,"mass_kg":null,"dimensions":null,"purposes":["comms"],"wikipedia_slug":null,"has_3d_model":false,"image_url":null,"decayed_at":null,"tle_current":{"epoch":"2026-05-25T03:37:39.715104Z","epoch_age_seconds":65270,"freshness":"FRESH","line1":"1 43478U 18047C   26145.15115411  .00000271  00000+0  74429-4 0  9992","line2":"2 43478  86.4470  98.1024 0002404  91.9514 268.1962 14.43280717421817","mean_motion":14.43280717,"eccentricity":0.0002404,"inclination_deg":86.447,"raan_deg":98.1024,"arg_perigee_deg":91.9514,"mean_anomaly_deg":268.1962,"bstar":7.4429e-5,"rev_number":42181,"period_min":99.772690304709,"perigee_km":745.96646519525,"apogee_km":749.39255777397,"semimajor_km":7125.8165114846,"source":"CELESTRAK","updated_at":"2026-05-25T13:38:14.809707Z"}}}